Retour au catalogue

STARLINK-11123

ActifCommunicationsVLEO
NORAD 59948·PAYLOAD·🇺🇸 United States

Lancé Jun 5, 2024 depuis Cape Canaveral Space Force Station

Loading…

Prochains Passages (prochaines 24 heures)

TLE

FraisSource: CelesTrak SupGP

Époque: Sep 14, 2026, 20:42 UTC

1 59948C 24107D   26257.86298611  .00214490  00000+0  17648-2 0  2576
2 59948  53.1576  38.9073 0001183  83.6924 328.9495 15.69630061    17

Suivez STARLINK-11123 en temps réel avec AllMySat

Download on the App Store